NIMBUS 2 DEB, 59969

Orbit data source: Space-Track

NIMBUS 2 DEB, 59969 is space debris in SSO originally from a launch on Sun, 15 May 1966 UTC launched from the Air Force Western Test Range (AFWTR). Debris objects in space refer to the collection of defunct objects orbiting the Earth. Examples of debris include non-operational satellites, rocket bodies, and fragments generated from explosions, collisions, or faulty payload assembly.

Loading next visibility...
Identifier
59969, 1966-040BY
Orbit
SSO
Country
Flag of USUS
Related business
Manufacturer
Unknown
Mission
Spacecraft
Bus & Motor
Unknown
Mass
Unknown
Launch date (UTC)
1966-05-15 (60 years ago)
Launch vehicle
Unknown
Launch site
Air Force Western Test Range (AFWTR)
Object type
Payload
Rocket body
Debris
Shape & HBR
Unknown shape, 0.1 m
Radar Cross Section
Medium (>0.1 m² and <1 m²)

Expand to show TLE details & history
Last TLE update: 4 days ago

TLE from 4 days ago
0 NIMBUS 2 DEB
1 59969U 66040BY  26169.91947819  .00002166  00000-0  36158-2 0  9996
2 59969 100.1573 339.1655 0051402 174.4042 185.7674 13.47010605362885
Epoch: 2026-06-18T22:04Z
TLE epoch observation values (Epoch: 2026-06-18T22:04:02.915Z)
Latitude
Longitude
100.99746°
Altitude
1,124.211 km
Speed
7.272 km/s
True Right ascension
22h 36m 39s
True Declination
0° 00' 00"
Sunlit
Object was in daylight at epoch
Visualization orbit readout
Latitude
Unknown
Longitude
Unknown
Altitude
Unknown
Speed
Unknown
Apparent Right ascension
Unknown
Apparent Declination
Unknown
Sunlit
N/A
Visualization observer readout
Local Sidereal Time
21:40:03
Azimuth
Unknown
Elevation
Unknown
Doppler factor
Unknown
Orbital elements
Apogee altitude
1,118.946 km
Perigee altitude
1,042.267 km
Semi-major axis
7,458.744 km
Eccentricity
0.00514
Inclination
100.1573°
RAAN
339.1655°
Arg. of periapsis
174.4042°
True anomaly
185.70858°
Mean anomaly
185.7674°
Eccentric anomaly
185.73796°
Mean motion
3.36934 °/min
Orbital period
106.85 mins
BSTAR
0.0036158
Loading maneuver chart data...
Computing Atmospheric mass density...
Loading historical data...
Loading historical data...
Loading historical data...
Loading historical data...
Loading historical data...
Loading historical data...
Loading historical data...

Documentation

Showing up to 5 results
|